Simultaneous Nadir Overpasses (SNOs) Predictions

Prediction of SNOs over PacNW region [( 10.00, 139.50) to ( 22.70, 165.60)] between AQUA and NPP Satellites:

Table of predicted SNOs over PacNW region for the next 30.0 days since TLE Epoch: 11/10/2012
Index Date (AQUA) Time (AQUA) AQUA Lat,Lon Date (NPP) Time (NPP) NPP Lat,Lon Distance(km) Time Diff (sec)
1 11/10/2012 15:58:48 22.59, 147.52 11/10/2012 15:59:45 23.24, 144.58 310.21 57
2 11/18/2012 15:13:28 14.77, 157.60 11/18/2012 15:11:17 15.25, 155.32 250.58 131
3 11/24/2012 02:27:57 22.62, 163.37 11/24/2012 02:27:58 21.95, 160.23 331.98 1
4 11/24/2012 04:03:25 10.09, 141.47 11/24/2012 04:05:51 9.21, 137.87 406.96 146
5 11/29/2012 14:59:38 22.60, 162.30 11/29/2012 15:02:37 23.34, 158.87 360.40 179
